QPF
0.00 0.00 0.00 0.00 0.00 0.00 0.00 0.00 0.00 0.00 0.00 0.00 0.00 0.00 0.00 0.00 0.00 0.00 0.00 0.00 0.00 0.00 0.00 0.00 0.00 0.00 0.00 0.00 0.00 0.00 0.00 0.00 0.00 0.00 0.00 0.00 0.00 0.00 0.00 0.00 0.00 0.00 0.00 0.00
0.00 0.00 0.00 0.00 0.00 0.00 0.00 0.00 0.00 0.00 0.00 0.00 0.00 0.00 0.00 0.00 0.00 0.00 0.00 0.00 0.00 0.00 0.00 0.00 0.00 0.00 0.00 0.00 0.00 0.00 0.00 0.00 0.00 0.00 0.00 0.00 0.00 0.00 0.00 0.00 0.00 0.00 0.00 0.00
0.00 0.00 0.00 0.00 0.00 0.00 0.00 0.00 0.00 0.00 0.00 0.00 0.00 0.00 0.00 0.00 0.00 0.00 0.00 0.00 0.00 0.00 0.00 0.00 0.00 0.00 0.00 0.00 0.00 0.00 0.00 0.00 0.00 0.00 0.00 0.00 0.00 0.00 0.00 0.00 0.00 0.00 0.00 0.00
0.00 0.00 0.00 0.00 0.00 0.00 0.00 0.00 0.00 0.00 0.00 0.00 0.00 0.00 0.00 0.00 0.00 0.00 0.00 0.00 0.00 0.00 0.00 0.00 0.00 0.00 0.00 0.00 0.00 0.00 0.00 0.00 0.00 0.00 0.00 0.00 0.00 0.00 0.00 0.00 0.00 0.00 0.00 0.00
0.00 0.00 0.00 0.00 0.00 0.00 0.00 0.00 0.00 0.00 0.00 0.00 0.00 0.00 0.00 0.00 0.00 0.00 0.00 0.00 0.00 0.00 0.00 0.00 0.00 0.00 0.00 0.00 0.00 0.00 0.00 0.00 0.00 0.00 0.00 0.00 0.00 0.00 0.00 0.00 0.00 0.00 0.00 0.00
0.00 0.00 0.00 0.00 0.00 0.00 0.00 0.00 0.00 0.00 0.00 0.00 0.00 0.00 0.00 0.00 0.00 0.00 0.00 0.00 0.00 0.00 0.00 0.00 0.00 0.00 0.00 0.00 0.00 0.00 0.00 0.00 0.00 0.00 0.00 0.00 0.00 0.00 0.00 0.00 0.00 0.00 0.00 0.00
0.00 0.00 0.00 0.00 0.00 0.00 0.00 0.02 0.00 0.00 0.00 0.00 0.00 0.00 0.00 0.00 0.00 0.00 0.00 0.00 0.00 0.00 0.00 0.00 0.00 0.00 0.00 0.00 0.00 0.00 0.00 0.00 0.00 0.00 0.00 0.00 0.00 0.00 0.00 0.00 0.00 0.00 0.00 0.00
0.00 0.00 0.00 0.00 0.00 0.00 0.00 0.00 0.00 0.00 0.00 0.00 0.00 0.00 0.00 0.00 0.00 0.00 0.00 0.00 0.00 0.00 0.00 0.00 0.00 0.00 0.00 0.00 0.00 0.00 0.00 0.00 0.00 0.00 0.00 0.00 0.00 0.00 0.00 0.00 0.00 0.00 0.00 0.00
0.00 0.00 0.00 0.00 0.00 0.00 0.00 0.00 0.00 0.00 0.00 0.00 0.00 0.00 0.00 0.00 0.00 0.00 0.00 0.00 0.00 0.00 0.00 0.00 0.00 0.00 0.00 0.00 0.00 0.00 0.00 0.00 0.00 0.00 0.00 0.00 0.00 0.00 0.00 0.00 0.00 0.00 0.00 0.00
0.00 0.00 0.00 0.00 0.00 0.00 0.00 0.00 0.00 0.00 0.00 0.00 0.00 0.00 0.00 0.00 0.00 0.00 0.00 0.00 0.00 0.00 0.00 0.00 0.00 0.00 0.00 0.00 0.00 0.00 0.00 0.00 0.00 0.00 0.00 0.00 0.00 0.00 0.00 0.00 0.00 0.00 0.00 0.00
0.00 0.00 0.00 0.00 0.00 0.00 0.00 0.00 0.00 0.00 0.00 0.00 0.00 0.00 0.00 0.00 0.00 0.00 0.00 0.00 0.00 0.00 0.00 0.00 0.00 0.00 0.00 0.00 0.00 0.00 0.00 0.00 0.00 0.00 0.00 0.00 0.00 0.00 0.00 0.00 0.00 0.00 0.00 0.00
0.00 0.00 0.00 0.00 0.00 0.00 0.00 0.00 0.00 0.00 0.00 0.00 0.00 0.00 0.00 0.00 0.00 0.00 0.00 0.00 0.00 0.00 0.00 0.00 0.00 0.00 0.00 0.00 0.00 0.00 0.00 0.00 0.00 0.00 0.00 0.00 0.00 0.00 0.00 0.00 0.02 0.00 0.00 0.01
0.00 0.00 0.00 0.00 0.00 0.00 0.00 0.00 0.00 0.00 0.00 0.00 0.00 0.00 0.00 0.00 0.00 0.00 0.00 0.00 0.00 0.00 0.00 0.00 0.00 0.00 0.00 0.00 0.00 0.00 0.00 0.00 0.00 0.00 0.00 0.00 0.00 0.00 0.00 0.00 0.00 0.00 0.00 0.00
0.00 0.00 0.00 0.00 0.00 0.00 0.00 0.00 0.00 0.00 0.00 0.00 0.00 0.00 0.00 0.00 0.00 0.00 0.00 0.01 0.01 0.00 0.00 0.00 0.00 0.00 0.00 0.00 0.00 0.00 0.00 0.00 0.00 0.00 0.00 0.00 0.00 0.00 0.00 0.00 0.00 0.00 0.00 0.00
0.00 0.00 0.00 0.00 0.00 0.00 0.00 0.00 0.00 0.00 0.00 0.00 0.00 0.00 0.00 0.00 0.00 0.01 0.01 0.01 0.01 0.01 0.01 0.00 0.00 0.00 0.00 0.00 0.00 0.00 0.00 0.00 0.00 0.00 0.00 0.00 0.00 0.00 0.00 0.00 0.00 0.00 0.00 0.00
0.00 0.00 0.00 0.00 0.00 0.00 0.00 0.00 0.00 0.00 0.00 0.00 0.00 0.00 0.00 0.03 0.04 0.02 0.02 0.00 0.00 0.00 0.00 0.00 0.01 0.00 0.00 0.00 0.00 0.00 0.00 0.00 0.00 0.00 0.00 0.00 0.00 0.00 0.00 0.00 0.00 0.00 0.00 0.00
0.00 0.00 0.00 0.00 0.00 0.00 0.00 0.00 0.00 0.00 0.00 0.00 0.01 0.03 0.08 0.16 0.16 0.10 0.11 0.07 0.02 0.01 0.00 0.00 0.01 0.00 0.00 0.00 0.00 0.00 0.00 0.00 0.00 0.00 0.00 0.00 0.00 0.00 0.00 0.00 0.00 0.00 0.00 0.00
0.00 0.00 0.00 0.00 0.00 0.01 0.01 0.02 0.04 0.04 0.04 0.11 0.12 0.25 0.31 0.29 0.17 0.18 0.03 0.05 0.03 0.01 0.00 0.00 0.00 0.00 0.00 0.00 0.00 0.00 0.00 0.00 0.00 0.00 0.00 0.00 0.00 0.00 0.00 0.00 0.00 0.00 0.00 0.00
0.08 0.15 0.12 0.17 0.15 0.07 0.09 0.05 0.03 0.07 0.16 0.25 0.23 0.46 0.33 0.18 0.23 0.13 0.03 0.00 0.00 0.00 0.00 0.00 0.00 0.00 0.00 0.00 0.00 0.00 0.00 0.00 0.00 0.00 0.00 0.00 0.00 0.00 0.00 0.00 0.00 0.00 0.00 0.00
0.77 0.65 0.35 0.22 0.07 0.25 0.31 0.06 0.06 0.27 0.22 0.21 0.19 0.31 0.28 0.22 0.24 0.16 0.06 0.02 0.00 0.00 0.00 0.00 0.00 0.00 0.00 0.00 0.00 0.00 0.00 0.00 0.00 0.00 0.00 0.00 0.00 0.00 0.00 0.00 0.00 0.00 0.00 0.00
0.66 0.53 0.42 0.33 0.43 0.53 0.46 0.27 0.19 0.46 0.34 0.34 0.28 0.33 0.44 0.39 0.32 0.28 0.25 0.22 0.16 0.06 0.01 0.00 0.00 0.00 0.00 0.00 0.00 0.00 0.00 0.00 0.00 0.00 0.00 0.00 0.00 0.00 0.00 0.00 0.00 0.00 0.00 0.00
0.14 0.30 0.45 0.48 0.45 0.48 0.45 0.40 0.37 0.39 0.29 0.27 0.30 0.26 0.25 0.26 0.27 0.28 0.25 0.23 0.20 0.16 0.09 0.04 0.01 0.01 0.00 0.00 0.00 0.00 0.00 0.00 0.00 0.00 0.00 0.00 0.00 0.00 0.00 0.00 0.00 0.00 0.00 0.00
0.01 0.01 0.02 0.07 0.13 0.17 0.17 0.20 0.22 0.18 0.14 0.12 0.11 0.09 0.07 0.05 0.03 0.04 0.06 0.04 0.03 0.03 0.03 0.03 0.01 0.00 0.00 0.00 0.00 0.00 0.00 0.00 0.00 0.00 0.00 0.00 0.00 0.00 0.00 0.00 0.00 0.00 0.00 0.00
0.00 0.00 0.00 0.00 0.00 0.00 0.00 0.00 0.01 0.01 0.02 0.02 0.02 0.01 0.00 0.00 0.00 0.00 0.00 0.00 0.00 0.00 0.00 0.00 0.00 0.00 0.00 0.00 0.00 0.00 0.00 0.00 0.00 0.00 0.00 0.00 0.00 0.00 0.00 0.00 0.00 0.00 0.00 0.00
0.00 0.00 0.00 0.00 0.00 0.00 0.00 0.00 0.00 0.00 0.00 0.00 0.00 0.00 0.00 0.00 0.00 0.00 0.00 0.00 0.00 0.00 0.00 0.00 0.00 0.00 0.00 0.00 0.00 0.00 0.00 0.00 0.00 0.00 0.00 0.00 0.00 0.00 0.00 0.00 0.00 0.00 0.00 0.00
0.00 0.00 0.00 0.00 0.00 0.00 0.00 0.00 0.00 0.00 0.00 0.00 0.00 0.00 0.00 0.00 0.00 0.00 0.00 0.00 0.00 0.00 0.00 0.00 0.00 0.00 0.00 0.00 0.00 0.00 0.00 0.00 0.00 0.00 0.00 0.00 0.00 0.00 0.00 0.00 0.00 0.00 0.00 0.00
0.00 0.00 0.00 0.00 0.00 0.00 0.00 0.00 0.00 0.00 0.00 0.00 0.00 0.00 0.00 0.00 0.00 0.00 0.00 0.00 0.00 0.00 0.00 0.00 0.00 0.00 0.00 0.00 0.00 0.00 0.00 0.00 0.00 0.00 0.00 0.00 0.00 0.00 0.00 0.00 0.00 0.00 0.00 0.00
MSLP
988.50 986.93 985.73 986.20 986.77 986.97 987.12 987.43 987.50 987.04 986.99 987.44 987.76 988.11 988.24 988.83 989.20 989.53 990.08 990.58 991.24 991.80 992.70 993.70 994.71 996.06 997.18 998.10 999.27 1000.30 1001.54 1002.59 1003.19 1004.21 1004.93 1005.73 1006.33 1006.88 1007.51 1007.87 1007.91 1008.44 1008.89 1009.18
989.52 987.95 987.13 986.20 985.96 986.42 986.65 987.04 987.19 986.84 986.45 987.27 988.06 988.66 989.13 989.85 990.35 990.70 991.14 991.42 991.87 992.39 993.02 993.67 994.38 995.18 996.21 997.17 997.95 999.05 1000.06 1000.70 1001.70 1002.75 1003.71 1004.47 1005.19 1005.70 1006.16 1006.52 1007.09 1007.59 1007.85 1008.29
991.17 990.09 988.32 986.66 985.38 985.64 986.19 986.68 986.85 986.55 986.67 987.14 988.16 988.90 989.73 990.47 991.08 991.64 992.06 992.29 992.55 992.84 993.31 993.80 994.24 994.85 995.52 996.34 997.10 997.96 998.84 999.61 1000.41 1001.40 1002.26 1003.02 1003.82 1004.49 1004.89 1005.49 1006.17 1006.46 1006.95 1007.29
993.35 991.45 989.32 987.61 986.51 986.37 986.07 986.52 986.96 987.20 987.01 987.78 988.47 989.40 990.29 991.07 991.76 992.32 992.68 992.87 993.02 993.11 993.33 993.50 993.77 994.36 995.05 995.81 996.77 997.41 998.12 998.79 999.47 1000.25 1001.06 1001.94 1002.72 1003.25 1003.99 1004.52 1004.82 1005.39 1005.81 1006.14
994.49 992.40 990.50 988.73 987.53 987.15 987.10 986.87 987.46 987.84 987.85 988.76 989.83 990.52 991.40 992.12 992.59 993.08 993.45 993.54 993.57 993.46 993.28 993.32 993.54 993.92 994.52 995.07 995.87 996.77 997.50 998.09 998.67 999.34 1000.07 1000.82 1001.39 1002.11 1002.92 1003.61 1004.04 1004.24 1004.65 1005.17
996.26 993.89 991.72 990.12 988.52 987.82 988.22 989.20 990.06 989.57 989.62 989.91 990.93 992.04 993.25 993.87 994.21 994.41 994.56 994.49 994.31 994.03 993.61 993.24 993.21 993.24 993.85 994.83 995.41 996.14 996.57 997.14 997.97 998.64 999.17 999.66 1000.36 1001.22 1002.02 1002.64 1003.10 1003.67 1003.74 1003.88
997.78 995.79 993.09 992.62 990.66 989.21 990.44 994.48 993.66 992.42 991.83 991.97 992.72 994.10 994.81 995.18 995.36 995.32 995.16 994.80 994.58 994.45 994.19 993.90 994.03 993.96 994.16 994.24 994.65 995.09 995.78 996.57 997.26 997.79 998.32 998.99 999.83 1000.57 1001.32 1001.95 1002.51 1002.84 1003.06 1003.26
998.46 996.98 996.33 995.07 993.23 993.49 995.56 996.14 995.86 995.40 995.16 995.04 995.07 995.40 995.70 995.94 996.12 995.91 995.46 995.00 994.62 994.36 994.29 993.99 993.96 994.30 994.56 994.64 994.65 994.93 995.08 995.79 996.55 997.21 997.88 998.52 999.29 1000.00 1000.67 1001.37 1001.89 1002.21 1002.48 1002.60
999.17 997.52 996.55 997.49 997.36 997.49 997.07 997.36 997.50 997.67 997.56 997.23 996.85 996.71 996.85 996.79 996.87 996.45 995.59 995.13 994.97 994.74 994.37 994.25 994.31 994.75 994.86 994.96 994.91 994.96 995.07 995.49 996.17 996.82 997.54 998.16 998.73 999.46 1000.12 1000.71 1001.17 1001.51 1001.81 1001.96
1000.52 998.92 998.54 998.81 998.42 998.37 998.45 998.60 998.81 998.99 998.91 998.61 998.45 998.07 997.38 997.42 997.82 997.75 996.60 996.21 996.13 995.65 995.02 995.16 995.36 995.39 995.25 995.09 994.97 995.08 995.12 995.53 996.10 996.70 997.35 997.90 998.39 998.85 999.49 999.94 1000.53 1001.04 1001.26 1001.36
1001.45 1000.39 999.77 999.76 999.61 999.50 999.61 999.72 999.50 999.39 999.61 999.42 999.44 999.33 999.30 999.32 999.50 998.92 998.16 997.95 997.36 996.60 996.00 996.26 996.45 996.45 996.31 996.09 995.75 995.33 995.35 995.69 996.10 996.62 997.20 997.67 998.09 998.30 998.86 999.18 999.73 1000.36 1000.81 1001.01
1002.30 1001.82 1001.31 1000.62 1000.44 999.96 999.65 1000.02 1000.10 1000.04 999.85 1000.01 1000.17 1000.38 1000.26 999.98 1000.08 1000.00 999.31 998.89 998.38 997.73 997.22 997.43 997.55 997.52 997.02 996.68 996.28 995.73 995.72 995.89 996.06 996.33 996.73 997.33 997.58 998.10 998.30 999.27 1000.40 1001.09 1001.50 1001.64
1004.82 1004.07 1003.17 1002.10 1001.48 1000.99 1000.60 1000.05 1000.05 1000.02 1000.15 1000.50 1000.84 1000.95 1000.50 1000.03 1000.32 1000.27 1000.02 999.10 998.62 998.25 998.41 998.39 998.17 997.82 997.48 997.08 996.73 996.41 996.23 996.00 996.12 996.27 996.35 996.65 997.12 997.64 998.76 1000.77 1000.81 1000.97 1001.56 1002.10
1005.01 1005.01 1003.86 1003.39 1002.18 1001.74 1001.33 1001.04 1000.63 1000.68 1000.45 1000.63 1000.67 1000.35 1000.20 999.88 1000.29 1000.18 999.54 999.12 998.88 998.71 998.77 998.81 998.70 998.31 997.71 997.43 997.28 997.06 996.90 996.84 996.46 996.50 996.83 997.43 997.85 998.22 998.70 999.92 1000.55 1001.09 1001.11 1001.74
1004.70 1004.66 1004.07 1003.80 1003.27 1002.16 1001.63 1001.45 1001.53 1001.14 1000.79 1000.55 1000.50 1000.42 1000.14 1000.09 1000.33 1000.26 999.86 999.55 999.17 999.08 998.95 999.23 999.15 998.69 998.29 998.08 997.97 997.64 996.98 997.28 997.28 997.70 998.02 998.14 998.35 998.56 999.05 999.67 1000.43 1001.10 1001.60 1001.77
1002.45 1003.82 1004.16 1003.74 1003.06 1002.36 1002.29 1002.06 1001.83 1001.84 1001.74 1001.15 1000.67 1000.89 1000.85 1000.65 1000.91 1000.94 1000.32 999.96 999.62 999.98 999.68 999.66 999.51 999.02 998.58 998.45 998.34 998.41 998.42 998.25 997.93 998.13 998.50 998.62 998.83 999.02 999.53 1000.11 1000.62 1001.26 1001.68 1002.49
1002.54 1003.29 1003.77 1003.46 1003.09 1002.65 1002.29 1002.28 1002.48 1002.53 1002.19 1001.67 1001.75 1001.83 1001.82 1001.57 1001.86 1001.61 1001.00 1001.07 1000.02 1000.85 1000.49 1000.28 1000.23 999.66 999.04 998.72 998.68 998.89 999.19 999.23 999.03 999.33 999.79 1000.06 1000.16 1000.43 1000.69 1000.99 1001.43 1001.88 1002.32 1003.12
1003.94 1003.94 1003.85 1003.83 1003.54 1003.25 1003.13 1003.17 1003.03 1002.94 1002.55 1002.44 1002.33 1002.13 1001.98 1002.15 1002.33 1002.86 1001.72 1002.27 1001.19 1001.10 1000.45 1000.86 1000.57 1000.07 999.56 999.00 999.07 999.46 999.90 1000.16 1000.25 1000.39 1000.71 1001.20 1001.75 1002.21 1002.56 1002.91 1003.16 1003.17 1003.40 1003.49
1005.62 1004.84 1004.48 1004.60 1003.61 1003.68 1003.73 1003.92 1004.31 1004.40 1004.34 1004.35 1003.74 1003.29 1003.46 1003.53 1003.78 1004.37 1002.77 1002.20 1002.24 1002.19 1002.78 1002.22 1001.42 1000.35 999.69 1000.04 999.87 1000.01 1000.50 1001.32 1001.35 1001.59 1001.89 1002.09 1002.38 1002.75 1003.31 1003.75 1004.12 1004.51 1004.73 1004.58
1006.73 1006.10 1006.02 1005.78 1005.43 1005.37 1005.13 1005.12 1004.97 1005.36 1005.79 1005.92 1005.19 1004.15 1004.75 1005.34 1005.24 1004.66 1003.33 1004.45 1005.49 1004.54 1005.04 1003.33 1002.00 1000.91 1000.84 1000.67 1000.49 1001.18 1002.00 1002.22 1002.37 1002.63 1002.64 1002.64 1003.10 1003.59 1003.91 1004.44 1004.85 1005.47 1005.58 1005.80
1009.37 1008.76 1008.06 1007.85 1007.67 1007.08 1006.43 1006.18 1005.67 1006.73 1007.36 1006.97 1006.24 1005.82 1006.14 1006.37 1005.83 1005.97 1004.63 1006.13 1007.30 1006.77 1005.73 1004.09 1003.44 1002.50 1001.91 1001.44 1001.04 1001.88 1002.50 1003.11 1003.30 1003.26 1003.41 1003.53 1003.86 1004.30 1004.97 1005.55 1005.59 1006.07 1006.56 1006.77
1009.66 1009.77 1009.84 1009.55 1009.13 1008.71 1008.31 1007.92 1007.74 1008.49 1008.43 1008.12 1007.81 1007.80 1007.49 1008.12 1008.13 1008.25 1008.68 1008.93 1008.80 1007.80 1007.06 1006.07 1005.43 1004.09 1003.15 1003.12 1002.96 1003.41 1003.62 1004.15 1004.22 1004.10 1004.29 1004.63 1005.05 1005.51 1005.76 1006.40 1006.59 1007.09 1007.37 1007.68
1009.63 1009.86 1009.73 1009.91 1010.15 1010.18 1010.04 1009.94 1010.03 1009.99 1009.84 1009.71 1009.29 1009.06 1009.23 1009.44 1008.98 1009.37 1009.63 1009.71 1009.20 1008.49 1008.13 1007.41 1006.23 1004.83 1004.01 1003.96 1004.09 1004.44 1004.95 1005.29 1005.49 1005.70 1004.83 1005.25 1005.59 1005.84 1006.42 1006.80 1006.59 1007.15 1007.35 1007.61
1010.03 1009.60 1009.39 1009.59 1009.84 1010.13 1010.18 1010.22 1009.90 1009.89 1009.88 1009.77 1009.92 1010.02 1009.75 1009.61 1009.71 1009.44 1009.13 1008.87 1008.76 1008.61 1008.32 1007.87 1006.65 1006.33 1005.61 1005.28 1005.80 1006.15 1006.33 1006.28 1005.95 1005.57 1005.89 1006.45 1006.36 1006.78 1007.04 1007.30 1007.24 1007.58 1007.79 1007.72
1010.31 1010.03 1010.00 1009.59 1009.40 1009.45 1009.62 1009.83 1009.92 1009.99 1010.08 1010.27 1010.20 1010.15 1010.12 1009.81 1009.79 1009.89 1009.39 1009.60 1009.69 1009.31 1008.84 1008.52 1008.01 1007.14 1006.63 1007.02 1007.30 1007.54 1007.49 1007.08 1006.55 1006.41 1006.89 1007.13 1007.41 1007.49 1007.86 1008.06 1008.38 1008.51 1008.33 1008.20
1010.53 1010.00 1009.88 1010.11 1010.25 1010.09 1009.84 1009.98 1010.34 1010.61 1010.28 1010.27 1010.29 1010.14 1009.88 1009.92 1009.71 1009.65 1009.57 1009.52 1009.45 1009.06 1008.83 1009.00 1008.63 1007.98 1008.18 1008.17 1008.37 1008.17 1008.36 1008.29 1007.94 1007.69 1007.73 1008.19 1008.47 1007.93 1008.08 1008.33 1008.53 1008.84 1009.27 1009.13
1010.43 1010.50 1010.12 1010.05 1010.16 1010.47 1010.59 1010.62 1010.60 1011.00 1011.15 1010.47 1010.43 1010.39 1010.28 1009.95 1010.12 1010.36 1010.17 1009.69 1009.49 1009.07 1008.91 1009.19 1009.38 1009.06 1009.14 1009.28 1009.07 1008.85 1008.75 1008.80 1008.96 1009.00 1009.13 1009.27 1008.98 1008.70 1008.83 1008.89 1008.98 1009.27 1009.54 1009.95
Thickness
5767 5800 5821 5808 5802 5808 5806 5818 5805 5832 5839 5839 5852 5861 5870 5874 5877 5882 5885 5890 5891 5892 5889 5891 5889 5888 5888 5887 5884 5883 5875 5870 5868 5864 5862 5858 5854 5851 5848 5846 5847 5844 5841 5839
5736 5779 5787 5793 5808 5810 5814 5818 5827 5838 5849 5861 5857 5865 5860 5859 5860 5860 5864 5873 5878 5883 5885 5887 5889 5890 5889 5888 5889 5888 5883 5882 5879 5874 5868 5864 5861 5858 5856 5854 5851 5848 5847 5844
5707 5743 5761 5763 5800 5809 5816 5824 5827 5821 5849 5861 5847 5847 5849 5851 5853 5850 5854 5861 5868 5875 5880 5884 5887 5892 5888 5890 5893 5890 5888 5887 5885 5880 5875 5872 5869 5865 5862 5858 5854 5853 5851 5850
5692 5719 5700 5765 5805 5808 5815 5825 5835 5841 5855 5859 5850 5846 5844 5850 5844 5846 5851 5857 5864 5872 5878 5885 5893 5893 5894 5893 5888 5888 5887 5888 5888 5885 5881 5878 5874 5871 5866 5863 5861 5857 5856 5856
5679 5695 5731 5754 5778 5787 5788 5806 5836 5833 5847 5840 5835 5832 5823 5838 5845 5844 5846 5851 5856 5868 5876 5882 5886 5891 5889 5888 5889 5886 5886 5888 5888 5888 5884 5881 5879 5875 5871 5865 5862 5862 5861 5859
5660 5676 5691 5743 5776 5799 5800 5765 5788 5809 5814 5819 5816 5787 5790 5816 5823 5827 5834 5839 5845 5855 5866 5875 5882 5889 5885 5881 5885 5884 5890 5891 5889 5888 5886 5884 5882 5877 5873 5870 5865 5862 5862 5864
5639 5658 5703 5709 5750 5776 5741 5709 5746 5771 5786 5793 5786 5781 5792 5804 5811 5821 5828 5836 5846 5852 5856 5864 5871 5876 5873 5880 5879 5891 5892 5888 5886 5887 5886 5885 5879 5876 5871 5867 5864 5861 5860 5861
5630 5646 5643 5691 5711 5700 5693 5708 5724 5736 5745 5754 5767 5774 5782 5788 5799 5809 5818 5829 5840 5845 5850 5861 5867 5866 5864 5867 5879 5883 5885 5886 5883 5882 5882 5880 5874 5871 5867 5861 5857 5856 5855 5855
5624 5649 5671 5666 5669 5675 5689 5694 5702 5713 5725 5737 5746 5756 5767 5780 5791 5800 5813 5821 5831 5837 5845 5854 5859 5860 5858 5864 5872 5876 5878 5877 5876 5875 5874 5871 5868 5863 5859 5858 5854 5852 5850 5849
5595 5629 5634 5638 5650 5661 5668 5678 5687 5696 5707 5723 5729 5744 5764 5772 5773 5780 5798 5809 5815 5822 5830 5833 5844 5848 5854 5862 5869 5868 5869 5869 5869 5866 5863 5862 5862 5861 5856 5853 5849 5847 5846 5845
5576 5604 5619 5624 5632 5645 5654 5662 5672 5685 5693 5707 5718 5727 5738 5747 5751 5763 5778 5788 5798 5808 5817 5819 5826 5831 5839 5846 5852 5855 5858 5859 5859 5858 5856 5854 5854 5854 5853 5853 5851 5847 5844 5842
5565 5583 5589 5608 5617 5633 5649 5651 5661 5675 5684 5696 5705 5711 5722 5734 5741 5747 5760 5771 5779 5791 5801 5805 5808 5812 5823 5833 5839 5844 5846 5847 5849 5850 5850 5847 5846 5843 5848 5842 5832 5825 5822 5826
5536 5557 5572 5590 5605 5617 5631 5647 5659 5666 5676 5681 5692 5701 5712 5724 5729 5737 5746 5761 5770 5779 5783 5788 5794 5801 5811 5820 5826 5830 5832 5837 5839 5839 5840 5841 5839 5839 5830 5817 5816 5815 5811 5806
5533 5541 5558 5573 5593 5605 5617 5631 5644 5651 5664 5673 5683 5697 5705 5717 5721 5728 5740 5753 5761 5767 5771 5776 5780 5787 5801 5809 5811 5814 5817 5817 5827 5829 5827 5824 5824 5822 5820 5815 5812 5809 5806 5799
5523 5531 5549 5558 5570 5588 5606 5616 5623 5636 5651 5663 5671 5680 5694 5705 5708 5715 5729 5738 5748 5755 5762 5765 5766 5774 5785 5791 5792 5797 5807 5806 5809 5808 5806 5806 5807 5806 5804 5800 5795 5791 5788 5785
5535 5526 5531 5541 5556 5575 5586 5599 5610 5620 5633 5648 5656 5664 5677 5693 5695 5700 5713 5725 5730 5730 5742 5749 5753 5762 5771 5775 5778 5779 5782 5782 5790 5793 5790 5791 5790 5788 5786 5782 5779 5775 5772 5763
5534 5532 5531 5537 5544 5556 5569 5582 5592 5602 5617 5632 5640 5650 5662 5671 5673 5683 5695 5701 5715 5712 5720 5726 5731 5744 5755 5759 5761 5761 5761 5763 5766 5768 5765 5764 5764 5761 5761 5760 5758 5754 5752 5745
5529 5530 5534 5535 5539 5545 5552 5561 5573 5586 5603 5613 5623 5637 5646 5653 5661 5662 5680 5680 5691 5698 5709 5710 5715 5722 5730 5739 5743 5743 5741 5739 5741 5741 5741 5738 5735 5732 5730 5728 5726 5727 5725 5726
5511 5522 5530 5529 5541 5541 5542 5542 5547 5556 5570 5582 5604 5616 5621 5629 5630 5638 5659 5670 5671 5673 5672 5684 5694 5705 5710 5710 5719 5722 5719 5711 5713 5714 5714 5715 5715 5713 5709 5706 5702 5699 5698 5701
5510 5517 5519 5520 5522 5523 5526 5530 5538 5543 5552 5564 5579 5595 5599 5602 5610 5621 5640 5634 5629 5643 5642 5658 5672 5683 5683 5687 5694 5692 5686 5687 5689 5689 5691 5694 5693 5689 5689 5684 5682 5677 5675 5672
5498 5503 5508 5508 5507 5510 5522 5526 5537 5534 5539 5553 5568 5576 5577 5582 5595 5601 5617 5607 5598 5607 5620 5635 5644 5652 5658 5663 5673 5670 5667 5664 5663 5667 5668 5671 5670 5668 5663 5659 5659 5654 5649 5649
5510 5503 5498 5500 5505 5506 5512 5517 5525 5526 5533 5539 5547 5555 5562 5559 5561 5568 5569 5571 5574 5584 5592 5602 5609 5623 5635 5638 5645 5644 5645 5643 5643 5646 5647 5646 5645 5641 5640 5635 5632 5625 5621 5620
5518 5511 5510 5507 5501 5498 5501 5503 5505 5509 5513 5519 5530 5536 5536 5539 5549 5547 5545 5552 5557 5565 5573 5579 5590 5605 5614 5616 5619 5620 5618 5617 5616 5616 5629 5627 5625 5623 5618 5615 5619 5613 5611 5606
5513 5517 5518 5513 5508 5505 5505 5507 5510 5510 5512 5516 5519 5520 5526 5530 5533 5538 5541 5546 5550 5554 5559 5563 5576 5582 5590 5596 5595 5594 5593 5594 5599 5605 5604 5597 5602 5599 5597 5595 5597 5594 5591 5591
5508 5509 5508 5512 5515 5514 5510 5508 5508 5509 5509 5510 5513 5516 5518 5521 5523 5524 5530 5530 5531 5537 5544 5547 5551 5563 5571 5570 5568 5568 5569 5573 5580 5582 5578 5578 5576 5577 5574 5573 5572 5571 5572 5573
5502 5508 5509 5505 5503 5505 5509 5508 5506 5503 5507 5508 5509 5512 5516 5515 5516 5518 5520 5522 5524 5531 5534 5533 5537 5545 5546 5548 5547 5550 5550 5551 5554 5558 5559 5555 5551 5558 5558 5557 5556 5554 5550 5551
5498 5495 5501 5502 5501 5498 5498 5498 5499 5495 5495 5504 5506 5508 5510 5514 5512 5508 5510 5516 5519 5524 5526 5524 5524 5528 5529 5529 5531 5534 5536 5535 5533 5534 5534 5533 5537 5539 5538 5539 5540 5537 5535 5528